This demonstration page uses our WeatherBlox Daily Observations layout. Learn more.

39.92423, -83.80882

Hourly Observations for September 2, 2017

Temp ( °F °C ) Dew Point ( °F °C ) Humidity (%) Winds ( mph kmh ) Pressure ( in mb ) Visibility ( mi km ) Precip ( " mm )
12:12 am 00:12 Cloudy with Light Rain 54 12 50 10 88 88 ENE 12 19 30 1016 8 12.874752 0.03 0.762
12:56 am 00:56 Cloudy with Rain 53 11.7 50 10 89 89 ENE 13 20 29.97 1015 10 16.09344 0.05 1.27
1:56 am 01:56 Cloudy 53 11.7 50 10 89 89 ENE 16 26 29.97 1015 10 16.09344 0.04 1.016
2:19 am 02:19 Cloudy with Light Rain 52 11 52 11 100 100 ENE 14 22 29.97 1015 6 9.656064 0.01 0.254
2:35 am 02:35 Cloudy with Light Rain 52 11 52 11 100 100 ENE 14 22 29.97 1015 6 9.656064 0.04 1.016
2:56 am 02:56 Cloudy with Light Rain 52 11.1 51 10.6 97 97 ENE 13 20 29.94 1014 6 9.656064 0.06 1.524
3:56 am 03:56 Cloudy with Light Rain 53 11.7 52 11.1 96 96 ENE 13 20 29.94 1014 10 16.09344 0.04 1.016
4:19 am 04:19 Cloudy with Light Rain 54 12 52 11 94 94 ENE 12 19 29.94 1014 10 16.09344 0.02 0.508
4:56 am 04:56 Cloudy 53 11.7 52 11.1 96 96 ENE 10 17 29.94 1014 10 16.09344 0.03 0.762
5:56 am 05:56 Cloudy 53 11.7 52 11.1 96 96 ENE 14 22 29.94 1014 10 16.09344 0.001 0.001
6:56 am 06:56 Cloudy with Light Rain 53 11.7 52 11.1 96 96 E 8 13 29.94 1014 10 16.09344 0.01 0.254
7:10 am 07:10 Cloudy with Light Rain 54 12 52 11 94 94 E 9 15 29.97 1015 9 14.484096 0.001 0.001
7:56 am 07:56 Cloudy with Light Rain 53 11.7 52 11.1 96 96 E 8 13 29.97 1015 9 14.484096 0.04 1.016
8:56 am 08:56 Cloudy 54 12.2 53 11.7 97 97 NE 7 11 29.97 1015 9 14.484096 0.001 0.001
9:15 am 09:15 Cloudy with Mist and Fog 54 12 54 12 100 100 ENE 6 9 29.97 1015 1.75 2.816352 0 0
9:22 am 09:22 Cloudy with Light Rain 54 12 54 12 100 100 ENE 7 11 29.97 1015 3 4.828032 0.001 0.001
9:56 am 09:56 Cloudy 55 12.8 53 11.7 93 93 E 8 13 29.97 1015 10 16.09344 0.001 0.001
10:56 am 10:56 Cloudy 55 12.8 53 11.7 93 93 ENE 8 13 29.97 1015 8 12.874752 0.001 0.001
11:13 am 11:13 Cloudy with Mist and Fog 54 12 54 12 100 100 ENE 8 13 30 1016 2 3.218688 0 0
11:23 am 11:23 Cloudy with Light Rain 54 12 54 12 100 100 ENE 6 9 30 1016 1.25 2.01168 0.001 0.001
11:52 am 11:52 Cloudy with Mist and Fog 55 13 54 12 94 94 ENE 5 7 30 1016 1.75 2.816352 0.001 0.001
11:56 am 11:56 Cloudy with Mist and Fog 55 12.8 54 12.2 96 96 NE 6 9 29.97 1015 2.5 4.02336 0.001 0.001
12:08 pm 12:08 Cloudy with Mist and Fog 55 13 54 12 94 94 ENE 6 9 30 1016 4 6.437376 0 0
12:31 pm 12:31 Cloudy 55 13 54 12 94 94 E 6 9 30 1016 9 14.484096 0 0
12:56 pm 12:56 Cloudy 56 13.3 54 12.2 93 93 NE 3 6 29.97 1015 10 16.09344 0 0
1:56 pm 13:56 Cloudy 57 13.9 55 12.8 93 93 ESE 3 6 29.97 1015 10 16.09344 0 0
2:48 pm 14:48 Cloudy 57 14 55 13 94 94 Calm 30 1016 10 16.09344 0 0
2:56 pm 14:56 Cloudy 57 13.9 55 12.8 93 93 Calm 29.97 1015 10 16.09344 0 0
3:48 pm 15:48 Cloudy with Mist and Fog 57 14 55 13 94 94 NW 6 9 30 1016 6 9.656064 0 0
3:56 pm 15:56 Cloudy with Mist and Fog 58 14.4 56 13.3 93 93 Calm 29.97 1015 6 9.656064 0 0
4:27 pm 16:27 Cloudy 59 15 55 13 88 88 WSW 5 7 29.97 1015 10 16.09344 0 0
4:56 pm 16:56 Cloudy 59 15 56 13.3 90 90 SSW 3 6 29.97 1015 10 16.09344 0 0
5:52 pm 17:52 Cloudy 59 15 55 13 88 88 WSW 8 13 30 1016 10 16.09344 0 0
5:56 pm 17:56 Cloudy 59 15 56 13.3 90 90 SW 7 11 29.97 1015 10 16.09344 0 0
6:43 pm 18:43 Cloudy with Light Rain 57 14 57 14 100 100 SW 3 6 30 1016 2.5 4.02336 0.001 0.001
6:56 pm 18:56 Cloudy with Light Rain 58 14.4 57 13.9 97 97 SW 3 6 29.97 1015 2 3.218688 0.001 0.001
7:03 pm 19:03 Cloudy with Light Rain 57 14 57 14 100 100 SW 6 9 30 1016 1.75 2.816352 0.001 0.001
7:18 pm 19:18 Cloudy with Light Rain 57 14 57 14 100 100 WSW 6 9 30 1016 3 4.828032 0.001 0.001
7:56 pm 19:56 Cloudy with Mist and Fog 58 14.4 57 13.9 97 97 SW 6 9 29.97 1015 5 8.04672 0.01 0.254
8:56 pm 20:56 Cloudy 58 14.4 57 13.9 97 97 SW 6 9 29.97 1015 8 12.874752 0 0
9:56 pm 21:56 Cloudy with Mist and Fog 58 14.4 57 13.9 97 97 WSW 7 11 30 1016 4 6.437376 0 0
10:20 pm 22:20 Cloudy with Mist and Fog 57 14 57 14 100 100 WSW 7 11 30.03 1017 2.5 4.02336 0 0
10:41 pm 22:41 Cloudy with Light Rain 57 14 57 14 100 100 SW 6 9 30 1016 3 4.828032 0.001 0.001
10:56 pm 22:56 Cloudy with Mist and Fog 58 14.4 57 13.9 97 97 SSW 5 7 30 1016 4 6.437376 0.001 0.001
11:56 pm 23:56 Cloudy with Mist and Fog 58 14.4 57 13.9 97 97 SW 7 11 30 1016 4 6.437376 0 0

Powered by AerisWeather